Flag for Germany Weather past 2 weeks in Marburg, Hesse, Germany

Now
52 °F

Overcast.


Feels Like: 52 °F
Forecast: 46 / 57 °F
Wind: 3 mph from Northeast

Location: Giessen

Current Time: May 24, 2015 at 7:16:05 AM

Latest Report: May 24, 2015 at 7:00 AM


Visibility: 11 mi

Pressure: 30.12 "Hg

Humidity: 83%

Dew point: 47 °F

Location of MarburgLocation

Historic Weather in Marburg — Graph

°F

Marburg temperature yesterday

Maximum temperature yesterday: 68 °F (at 2:00 PM)
Minimum temperature yesterday: 54 °F (at 5:00 AM)
Average temperature yesterday: 60 °F

Past Weeks' High & Low Weather Summary

 TemperatureHumidityPressure
High81 °F (May 12, 3:00 PM)96% (May 13, 5:00 AM)30.36 "Hg (May 13, 5:00 AM)
Low37 °F (May 21, 6:00 AM)31% (May 18, 6:00 PM)29.67 "Hg (May 18, 8:00 PM)
Average56 °F62%30.09 "Hg
* Reported May 9 5:00 AM — May 24 5:00 AM, Marburg, Weather by CustomWeather, © 2015

Note: Actual official high and low records may vary slightly from our data, if they occured in-between our weather recording intervals... More about our weather records

Advertising

Marburg weather history for previous 24 hours

 ConditionsComfort  
Time TempWeatherWind HumidityBarometerVisibility
5:00 AM
Sun, May 24
52 °FOvercast.3 mph85%30.12 "Hg16 mi
4:00 AM53 °FOvercast.2 mph84%30.12 "Hg17 mi
3:00 AM54 °FOvercast.2 mph81%30.13 "Hg15 mi
2:00 AM55 °FOvercast.3 mph82%30.13 "Hg10 mi
1:00 AM56 °FOvercast.5 mph80%30.13 "Hg7 mi
12:00 AM57 °FOvercast.3 mph78%30.13 "Hg7 mi
11:00 PM
Sat, May 23
58 °FOvercast.6 mph74%30.12 "Hg9 mi
10:00 PM60 °FOvercast.6 mph67%30.11 "Hg19 mi
9:00 PM62 °FOvercast.6 mph63%30.09 "Hg16 mi
8:00 PM63 °FOvercast.6 mph57%30.07 "Hg19 mi
7:00 PM65 °FOvercast.2 mph55%30.06 "Hg19 mi
6:00 PM65 °FOvercast.3 mph55%30.07 "Hg16 mi
5:00 PM66 °FOvercast.3 mph52%30.08 "Hg17 mi
4:00 PM66 °FOvercast.3 mph49%30.08 "Hg18 mi
3:00 PM65 °FOvercast.3 mph50%30.09 "Hg16 mi
2:00 PM68 °FOvercast.2 mph51%30.10 "Hg9 mi
1:00 PM65 °FOvercast.2 mph56%30.12 "Hg11 mi
12:00 PM63 °FOvercast.3 mph54%30.14 "Hg14 mi
11:00 AM63 °FOvercast.2 mph53%30.14 "Hg16 mi
10:00 AM60 °FOvercast.1 mph69%30.15 "Hg15 mi
9:00 AM58 °FOvercast.No wind70%30.16 "Hg18 mi
8:00 AM55 °FOvercast.1 mph78%30.16 "Hg14 mi
7:00 AM54 °FOvercast.2 mph77%30.15 "Hg19 mi
Weather by CustomWeather, © 2015

See weather overviewHow to use our weather pages